Simultaneous Nadir Overpasses (SNOs) Predictions

Prediction of SNOs between NPP and TERRA Satellite Orbit:

Table of predicted SNOs for the next 14.0 days since TLE Epoch: 1/4/2013
Index Date (NPP) Time (NPP) Lat,Lon (NPP) SZA (NPP ) Date (TERRA) Time (TERRA) Lat,Lon (TERRA) SZA (TERRA ) Distance(km) Time Diff (sec)
1 01/05/2013 03:44:58 -69.03, -58.95 88.45 01/05/2013 03:46:06 -68.92, -57.17 88.59 71.93 68
2 01/05/2013 04:35:28 68.14, 109.53 90.64 01/05/2013 04:35:45 68.15, 109.52 90.65 1.54 17
3 01/05/2013 05:26:09 -68.02, -83.00 89.49 01/05/2013 05:25:15 -68.04, -82.97 89.47 2.86 54
4 01/07/2013 20:01:36 -68.21, 57.91 89.61 01/07/2013 20:02:48 -68.23, 57.85 89.59 3.42 72
5 01/07/2013 20:52:21 68.12,-134.67 90.30 01/07/2013 20:52:15 68.12,-134.64 90.30 1.53 6
6 01/07/2013 21:43:00 -67.89, 32.93 89.94 01/07/2013 21:41:47 -67.90, 32.74 89.93 8.01 73
7 01/10/2013 12:18:30 -68.19, 173.71 90.01 01/10/2013 12:19:19 -68.20, 173.68 90.01 1.27 49
8 01/10/2013 13:09:14 68.05, -18.81 89.85 01/10/2013 13:08:46 68.08, -18.81 89.88 3.01 28
9 01/10/2013 13:59:39 -67.07, 149.70 91.17 01/10/2013 13:58:31 -67.14, 147.76 91.05 84.44 68
10 01/13/2013 03:44:59 69.15, 120.88 90.57 01/13/2013 03:46:06 69.03, 122.95 90.39 83.35 67
11 01/13/2013 04:35:24 -68.17, -70.48 90.46 01/13/2013 04:35:50 -68.15, -70.50 90.48 2.26 26
12 01/13/2013 05:26:08 68.03, 96.99 89.40 01/13/2013 05:25:17 68.03, 97.01 89.40 0.70 51
13 01/15/2013 20:01:38 68.33,-122.23 89.24 01/15/2013 20:02:49 68.30,-122.07 89.20 7.03 71
14 01/15/2013 20:52:18 -68.14, 45.33 90.96 01/15/2013 20:52:20 -68.15, 45.38 90.96 2.13 2
15 01/15/2013 21:43:01 67.96,-147.13 88.84 01/15/2013 21:41:48 67.97,-147.19 88.87 2.71 73
16 01/18/2013 12:18:30 68.24, -6.35 88.63 01/18/2013 12:19:19 68.23, -6.28 88.61 3.30 49
17 01/18/2013 13:09:10 -68.06, 161.21 91.58 01/18/2013 13:08:50 -68.08, 161.17 91.55 2.83 20
18 01/18/2013 13:59:39 67.11, -30.34 87.46 01/18/2013 13:58:31 67.17, -32.21 87.56 80.85 68




NCC Satellite Simultaneous Nadir Overpasses (SNOs) Prediction Service
